Showing default

COSMOS 1995, 19786

Orbit data source: Space-Track

COSMOS 1995, 19786 is a payload satellite owned by UNKS (CIS) in LEO that was launched on Fri, 10 Feb 1989 UTC via a TSIKLON-3 launch vehicle from the Plesetsk Missile And Space Complex (PKMTR). Payload-class satellites include a variety of spacecraft equipped with specific instruments for various scientific and technological missions. These include communications satellites like Starlink; space stations such as the ISS; scientific satellites like the Hubble; Earth observation satellites from companies like Planet Labs, Umbra, and HawkEye 360; GPS; miniature CubeSats for education and research; and military/defense satellites.

Loading next visibility...
Identifier
19786, 1989-009B
Orbit
LEO
Country
Flag of CISCIS
Related business
Manufacturer
NPO PM
Mission
Defense Communications
Bus & Motor
STRELA-3, Unknown motor
Mass
225 kg wet, 225 kg dry
Launch date (UTC)
1989-02-10 (37 years ago)
Launch vehicle
TSIKLON-3
Launch site
Plesetsk Missile And Space Complex (PKMTR)
Object type
Payload
Rocket body
Debris
Shape & HBR
Cyl, 0.8 m
Radar Cross Section
1.257 m², Large (>1 m²)

Expand to show TLE details & history
Last TLE update: 1 day ago

TLE from 1 day ago
0 COSMOS 1995
1 19786U 89009B   25306.43079440  .00000040  00000-0  16477-3 0  9996
2 19786  82.6241 172.5699 0002568 285.2236 248.9678 12.62226447691730
Epoch: 2025-11-02T10:20Z
TLE epoch observation values (Epoch: 2025-11-02T10:20:20.636Z)
Latitude
5.71201°
Longitude
154.79905°
Altitude
1,416.66 km
Speed
7.152 km/s
True Right ascension
23h 27m 19s
True Declination
5° 40' 51"
Sunlit
Object was in full shadow at epoch
Visualization orbit readout
Latitude
Unknown
Longitude
Unknown
Altitude
Unknown
Speed
Unknown
Apparent Right ascension
Unknown
Apparent Declination
Unknown
Sunlit
N/A
Visualization observer readout
Local Sidereal Time
06:51:19
Azimuth
Unknown
Elevation
Unknown
Doppler factor
Unknown
Orbital elements
Apogee altitude
1,413.088 km
Perigee altitude
1,409.087 km
Semi-major axis
7,789.224 km
Eccentricity
0.00026
Inclination
82.6241°
RAAN
172.5699°
Arg. of periapsis
285.2236°
True anomaly
248.94034°
Mean anomaly
248.9678°
Eccentric anomaly
248.95407°
Mean motion
3.1572 °/min
Orbital period
114.03 mins
BSTAR
0.00016477
Loading maneuver chart data...
Computing Atmospheric mass density...
Loading historical data...
Loading historical data...
Loading historical data...
Loading historical data...
Loading historical data...
Loading historical data...
Loading historical data...

Documentation

Showing up to 5 results
|